Palm Springs, CA

1:47 AM PDT on June 25, 2017 (GMT -0700)
Palm Springs International

Weather History for KPSP - November, 2013

Change the Weather History Date:

Saturday, November 9, 2013

  Actual Average Record
Temperature  
Mean Temperature 66 °F 67 °F  
Max Temperature 81 °F 80 °F 94 °F (1956)
Min Temperature 50 °F 55 °F 37 °F (1946)
Degree Days  
Heating Degree Days 0 1  
Month to date heating degree days 0 9  
Since 1 July heating degree days 10 13  
Cooling Degree Days 1 4  
Month to date cooling degree days 25 44  
Year to date cooling degree days 4462 4106  
Growing Degree Days 17 (Base 50)    
Moisture  
Dew Point 20 °F    
Average Humidity 25    
Maximum Humidity 41    
Minimum Humidity 8    
Precipitation  
Precipitation 0.00 in 0.01 in 0.18 in (1922)
Month to date precipitation 0.00 0.11  
Year to date precipitation 2.12 4.44  
Since 1 July precipitation 1.15  
Snow  
Snow 0.00 in - - ()
Month to date snowfall 0.0  
Year to date snowfall 0.0  
Snow Depth 0.00 in    
Sea Level Pressure  
Sea Level Pressure 30.03 in    
Wind  
Wind Speed 4 mph (NNW)    
Max Wind Speed 9 mph    
Max Gust Speed 12 mph    
Visibility 10 miles    
Events      
T = Trace of Precipitation, MM = Missing Value Source: NWS Daily Summary

Daily Weather History Graph

Daily Weather History Graph

Search for Another Location

Airport or City:

Trip Planner

Search our weather history database for the weather conditions in past years. The results will help you decide how hot, cold, wet, or windy it might be!

Date:

Astronomy

Nov. 09, 2013 Rise Set
Actual Time 6:12 AM PST 4:46 PM PST
Civil Twilight 5:46 AM PST 5:12 PM PST
Nautical Twilight 5:16 AM PST 5:42 PM PST
Astronomical Twilight 4:47 AM PST 6:11 PM PST
Moon 11:55 AM PST (11/9) 11:17 PM PST (11/9)
Length of Visible Light 11h 26m
Length of Day
10h 33m
Waxing Crescent, 45% of the Moon is Illuminated
Nov 9
Waxing Crescent
Nov 9
First Quarter
Nov 17
Full
Nov 25
Last Quarter
Dec 2
New

Hourly Weather History & Observations

Time (PST) Temp. Dew Point Humidity Pressure Visibility Wind Dir Wind Speed Gust Speed Precip Events Conditions
12:53 AM 62.1 °F 17.1 °F 18% 29.98 in 10.0 mi NNW 9.2 mph - N/A   Clear
1:53 AM 59.0 °F 18.0 °F 20% 29.98 in 10.0 mi NW 5.8 mph - N/A   Clear
2:53 AM 59.0 °F 19.0 °F 21% 29.98 in 10.0 mi NNW 6.9 mph - N/A   Clear
3:53 AM 57.0 °F 17.1 °F 21% 29.99 in 10.0 mi NW 5.8 mph - N/A   Clear
4:53 AM 53.1 °F 30.9 °F 43% 30.00 in 10.0 mi Calm Calm - N/A   Clear
5:53 AM 55.0 °F 17.1 °F 23% 30.02 in 10.0 mi NW 4.6 mph - N/A   Clear
6:53 AM 53.1 °F 30.9 °F 43% 30.05 in 10.0 mi Calm Calm - N/A   Clear
7:53 AM 62.1 °F 16.0 °F 17% 30.07 in 10.0 mi Calm Calm - N/A   Clear
8:53 AM 64.0 °F 26.1 °F 24% 30.08 in 10.0 mi Calm Calm - N/A   Clear
9:53 AM 70.0 °F 19.0 °F 14% 30.08 in 10.0 mi Calm Calm - N/A   Clear
10:53 AM 73.9 °F 21.9 °F 14% 30.06 in 10.0 mi ESE 3.5 mph - N/A   Clear
11:53 AM 77.0 °F 17.1 °F 10% 30.04 in 10.0 mi Variable 3.5 mph - N/A   Clear
12:53 PM 80.1 °F 17.1 °F 9% 30.01 in 10.0 mi SE 4.6 mph - N/A   Clear
1:53 PM 80.1 °F 14.0 °F 8% 30.00 in 10.0 mi South 3.5 mph - N/A   Clear
2:53 PM 81.0 °F 19.0 °F 10% 29.99 in 10.0 mi SSE 4.6 mph - N/A   Clear
3:53 PM 79.0 °F 19.0 °F 11% 30.00 in 10.0 mi SE 4.6 mph - N/A   Clear
4:53 PM 75.9 °F 27.0 °F 16% 30.01 in 10.0 mi Calm Calm - N/A   Clear
5:53 PM 71.1 °F 28.9 °F 21% 30.02 in 10.0 mi Calm Calm - N/A   Clear
6:53 PM 68.0 °F 28.9 °F 23% 30.05 in 10.0 mi NNW 5.8 mph - N/A   Clear
7:53 PM 64.0 °F 18.0 °F 17% 30.06 in 10.0 mi North 4.6 mph - N/A   Clear
8:53 PM 63.0 °F 19.0 °F 18% 30.08 in 10.0 mi North 4.6 mph - N/A   Clear
9:53 PM 62.1 °F 17.1 °F 18% 30.08 in 10.0 mi NNW 8.1 mph - N/A   Clear
10:53 PM 63.0 °F 15.1 °F 16% 30.07 in 10.0 mi NW 6.9 mph - N/A   Clear
11:53 PM 61.0 °F 15.1 °F 17% 30.06 in 10.0 mi NW 4.6 mph - N/A   Clear